Tracking 30995 objects as of 7-Jul-2025
HD Live streaming from Space Station
objects crossing your sky now

SL-14 DEB

Track SL-14 DEB now!
10-day predictions


NORAD ID: 19295
Int'l Code: 1978-100AE
Perigee: 1,262.3 km
Apogee: 2,052.8 km
Inclination: 82.0 °
Period: 119.3 minutes
Semi major axis: 8028 km
RCS: 0.0582 m2 (small)
Launch date: October 26, 1978
Source: Commonwealth of Independent States (former USSR) (CIS)
Launch site: PLESETSK MISSILE AND SPACE COMPLEX (PKMTR)

Note: This is SATELLITE DEBRIS
Your satellite tracking list
Your tracking list is empty




NASA's NSSDC Master Catalog

Two Line Element Set (TLE):
1 19295U 78100AE  25187.54322998  .00000173  00000-0  13263-2 0  9995
2 19295  81.9864 220.2875 0492322 229.4568 289.9399 12.06827976631454
Source of the keplerian elements: AFSPC